Showing default

OPS 9312 (IDSCS 2), 2216

Orbit data source: Space-Track

OPS 9312 (IDSCS 2), 2216 is a payload satellite owned by USAF SSD (US) in GEO that was launched on Thu, 16 Jun 1966 UTC via a TITAN IIIC launch vehicle from the Air Force Eastern Test Range (AFETR). Payload-class satellites include a variety of spacecraft equipped with specific instruments for various scientific and technological missions. These include communications satellites like Starlink; space stations such as the ISS; scientific satellites like the Hubble; Earth observation satellites from companies like Planet Labs, Umbra, and HawkEye 360; GPS; miniature CubeSats for education and research; and military/defense satellites.

Loading next visibility...
Identifier
2216, 1966-053C
Orbit
GEO
Country
Flag of USUS
Related business
Manufacturer
Philco-Ford WDL
Mission
Non-operational spacecraft
Bus & Motor
IDCSP, Unknown motor
Mass
45 kg wet, 45 kg dry
Launch date (UTC)
1966-06-16 (60 years ago)
Launch vehicle
TITAN IIIC
Launch site
Air Force Eastern Test Range (AFETR)
Object type
Payload
Rocket body
Debris
Shape & HBR
Unknown
Radar Cross Section
Medium (>0.1 m² and <1 m²)

Expand to show TLE details & history
Last TLE update: 2 days ago

TLE from 2 days ago
0 OPS 9312 (IDSCS 2)
1 02216U 66053C   26035.08179220 -.00000122  00000-0  00000-0 0  9992
2 02216   8.4120  45.1103 0033841 217.4907 140.2369  1.07851063 47828
Epoch: 2026-02-04T01:57Z
TLE epoch observation values (Epoch: 2026-02-04T01:57:46.846Z)
Latitude
-0.31124°
Longitude
-120.56836°
Altitude
33,890.959 km
Speed
3.142 km/s
True Right ascension
02h 52m 31s
True Declination
0° 18' 39"
Sunlit
Object was in daylight at epoch
Visualization orbit readout
Latitude
Unknown
Longitude
Unknown
Altitude
Unknown
Speed
Unknown
Apparent Right ascension
Unknown
Apparent Declination
Unknown
Sunlit
N/A
Visualization observer readout
Local Sidereal Time
13:50:07
Azimuth
Unknown
Elevation
Unknown
Doppler factor
Unknown
Orbital elements
Apogee altitude
33,924.288 km
Perigee altitude
33,652.433 km
Semi-major axis
40,166.498 km
Eccentricity
0.00338
Inclination
8.412°
RAAN
45.1103°
Arg. of periapsis
217.4907°
True anomaly
140.48413°
Mean anomaly
140.2369°
Eccentric anomaly
140.3606°
Mean motion
0.26962 °/min
Orbital period
1,335.23 mins
BSTAR
0
Loading maneuver chart data...
Computing Atmospheric mass density...
Loading historical data...
Loading historical data...
Loading historical data...
Loading historical data...
Loading historical data...
Loading historical data...
Loading historical data...

Documentation

Showing up to 5 results
|